Regional Weather Roundup
Issued by NWS

Home | Current Version | Previous Version | Graphics & Text | Print | Product List | Glossary On
Versions: 1 2 3 4 5 6 7 8 9 10 11 12 13 14 15 16 17 18 19 20 21 22 23 24 25 26 27 28 29 30 31 32 33 34 35 36 37 38 39 40 41 42 43 44 45 46 47 48 49 50
661
ASUS44 KJAN 220403
RWRMS

MISSISSIPPI HOURLY WEATHER ROUNDUP
NATIONAL WEATHER SERVICE JACKSON MS
1000 PM CST FRI NOV 21 2014

NOTE: "FAIR: INDICATES FEW OR NO CLOUDS BELOW 12,000 FEET WITH NO
SIGNIFICANT WEATHER AND/OR OBSTRUCTIONS TO VISIBILITY.

MSZ001>002-007>008-010>013-018>021-025>028-034>036-220500-
NORTHWEST MISSISSIPPI

CITY           SKY/WX    TMP DP  RH WIND       PRES   REMARKS
CLARKSDALE     CLOUDY    55  50  82 SE8       30.28S
CLEVELAND      MOCLDY    60  49  67 SE6       30.27R
GREENWOOD      MOCLDY    60  46  59 SE7       30.28F
GREENVILLE     CLOUDY    62  47  57 SE10      30.26S
GRENADA        CLOUDY    55  46  71 CALM      30.29F
OLIVE BRANCH   MOCLDY    48  48 100 CALM      30.28S
OXFORD         MOCLDY    54  46  76 SE6       30.31S
TUNICA         CLOUDY    54  48  82 SE6       30.28S
$$

MSZ003>006-009-014>017-022>024-029>033-037>039-220500-
NORTHEAST MISSISSIPPI

CITY           SKY/WX    TMP DP  RH WIND       PRES   REMARKS
COLUMBUS AFB   NOT AVBL
CORINTH        CLOUDY    52  37  58 SE5       30.31F
GOLDN TRIANGLE CLEAR     55  45  67 SE8       30.32R
STARKVILLE       N/A     48  46  93 CALM      30.32R
TUPELO         PTCLDY    51  46  83 S3        30.32S
$$

MSZ040-058-220500-
CENTRAL MISSISSIPPI

CITY           SKY/WX    TMP DP  RH WIND       PRES   REMARKS
JACKSON INTL   MOCLDY    54  46  74 S10       30.30R
JACKSON HAWKNS MOCLDY    56  45  66 SE5       30.30R
MERIDIAN KEY   CLEAR     44  42  93 CALM      30.31F
MERIDIAN NAS   CLEAR     47  43  86 CALM      30.32S
RAYMOND        FAIR      50  46  87 MISG      30.29S
VICKSBURG      MOCLDY    54  46  74 SE3       30.29R
$$

MSZ059>079-220500-
SOUTH MISSISSIPPI

CITY           SKY/WX    TMP DP  RH WIND       PRES   REMARKS
BROOKHAVEN     FAIR      55  45  67 CALM      30.31R
HATTIESBURG    CLEAR     46  44  93 CALM      30.30S
MCCOMB         PTCLDY    53  45  74 SE5       30.29R
NATCHEZ        CLOUDY    59  48  67 SE8       30.28S
PINE BELT      CLEAR     46  41  81 CALM      30.31R
$$

MSZ080>082-220500-
COASTAL MISSISSIPPI

CITY           SKY/WX    TMP DP  RH WIND       PRES   REMARKS
BILOXI         NOT AVBL
PASCAGOULA     CLEAR     43  41  93 CALM      30.29F
GULFPORT       CLEAR     54  49  83 E6        30.28S
$$



USA.gov is the U.S. government's official web portal to all federal, state and local government web resources and services.